DW5499 Weather Reports


time (UTC)temp
C
wind
direction
speed
KPH
gust
KPH
rain 1hr
cm
rain 24hr
cm
rain mn
cm
humidity
%
barometer
mb
20260906174523 35 70 3.2 11.3 0.00 0.00 0.00 52 1013.8
20260906173027 35 169 4.8 11.3 0.00 0.00 0.00 53 1013.9
20260906171519 35 148 3.2 9.7 0.00 0.00 0.00 55 1014.1
20260906170020 34 126 3.2 11.3 0.00 0.00 0.00 57 1014.4
20260906164513 33 125 3.2 8.0 0.00 0.00 0.00 58 1014.6
20260906163011 33 123 3.2 9.7 0.00 0.00 0.00 60 1014.8
20260906161512 32 141 6.4 9.7 0.00 0.00 0.00 60 1014.8
20260906160009 32 119 3.2 8.0 0.00 0.00 0.00 64 1014.8
20260906154502 31 174 1.6 6.4 0.00 0.00 0.00 68 1014.6
20260906153057 30 80 3.2 8.0 0.00 0.00 0.00 70 1014.5
20260906151558 30 77 6.4 11.3 0.00 0.00 0.00 70 1014.5
20260906150108 29 85 4.8 8.0 0.00 0.00 0.00 72 1014.5
20260906144550 28 86 1.6 9.7 0.00 0.00 0.00 74 1014.5
20260906143051 27 85 3.2 9.7 0.00 0.00 0.00 76 1014.7
20260906141548 27 78 3.2 8.0 0.00 0.00 0.00 77 1014.9
20260906140049 26 4 1.6 6.4 0.00 0.00 0.00 78 1014.7
20260906134542 26 357 1.6 8.0 0.00 0.00 0.00 79 1014.7
20260906133105 26 12 3.2 8.0 0.00 0.00 0.00 80 1014.6
20260906131538 25 37 3.2 6.4 0.00 0.00 0.00 83 1014.5
20260906130036 25 15 1.6 6.4 0.00 0.00 0.00 86 1014.3
20260906124535 24 6 1.6 4.8 0.00 0.00 0.00 88 1014.2
20260906123035 23 245 0.0 1.6 0.00 0.00 0.00 89 1014.1
20260906121531 24 245 0.0 4.8 0.00 0.00 0.00 89 1013.8
20260906120032 23 245 0.0 3.2 0.00 0.00 0.00 89 1013.5
20260906114541 23 245 0.0 4.8 0.00 0.00 0.00 88 1013.4
20260906113026 24 265 0.0 4.8 0.00 0.00 0.00 89 1013.3
20260906111524 23 265 0.0 3.2 0.00 0.00 0.00 88 1013.3
20260906110024 23 265 0.0 4.8 0.00 0.00 0.00 87 1013.2
20260906104524 24 350 0.0 3.2 0.00 0.00 0.00 87 1013.0
20260906103020 24 350 0.0 0.0 0.00 0.00 0.00 87 1013.1
20260906101523 24 350 1.6 3.2 0.00 0.00 0.00 87 1013.0
20260906100024 24 335 3.2 6.4 0.00 0.00 0.00 87 1013.1
20260906094518 25 247 0.0 4.8 0.00 0.00 0.00 86 1013.1
20260906093017 25 247 0.0 3.2 0.00 0.00 0.00 86 1013.0
20260906091522 25 247 0.0 3.2 0.00 0.00 0.00 86 1012.8
20260906090016 24 247 0.0 0.0 0.00 0.00 0.00 85 1012.7
20260906084513 25 247 3.2 6.4 0.00 0.00 0.00 84 1012.6
20260906083012 25 247 0.0 3.2 0.00 0.00 0.00 84 1012.5
20260906081517 25 247 0.0 3.2 0.00 0.00 0.00 83 1012.4
20260906080013 25 247 0.0 1.6 0.00 0.00 0.00 84 1012.3
20260906074509 25 247 0.0 1.6 0.00 0.00 0.00 84 1012.4
20260906073008 25 247 0.0 3.2 0.00 0.00 0.00 84 1012.4
20260906071506 25 247 0.0 4.8 0.00 0.00 0.00 83 1012.5
20260906070004 26 230 1.6 3.2 0.00 0.00 0.00 83 1012.6
20260906064501 26 39 0.0 1.6 0.00 0.00 0.00 82 1012.6
20260906063059 26 39 0.0 0.0 0.00 0.00 0.00 83 1012.8
20260906061600 26 39 0.0 1.6 0.00 0.00 0.00 83 1012.9
20260906060056 26 39 0.0 1.6 0.00 0.00 0.00 82 1012.9
20260906054603 26 39 1.6 6.4 0.00 0.00 0.00 81 1012.9
20260906053059 27 202 0.0 0.0 0.00 0.00 0.00 80 1012.9
20260906051608 27 202 0.0 1.6 0.00 0.00 0.00 80 1012.9
20260906050050 27 202 0.0 0.0 0.00 0.00 0.00 80 1012.8
20260906044554 27 202 0.0 1.6 0.00 0.00 0.00 80 1012.8
20260906043049 27 202 0.0 3.2 0.00 0.00 0.00 79 1012.7
20260906041552 27 202 0.0 3.2 0.00 0.00 0.00 78 1012.6
20260906040124 27 202 1.6 3.2 0.00 0.00 0.00 78 1012.4
20260906034600 28 206 0.0 3.2 0.00 0.00 0.00 79 1012.4
20260906033102 28 206 0.0 3.2 0.00 0.00 0.00 79 1012.3
20260906031546 28 231 1.6 6.4 0.00 0.00 0.00 77 1012.2
20260906030046 28 239 3.2 4.8 0.00 0.00 0.00 76 1011.9
20260906024552 29 200 1.6 3.2 0.00 0.00 0.00 76 1011.8
20260906023050 30 200 0.0 1.6 0.00 0.00 0.00 75 1011.7
20260906021545 30 236 0.0 3.2 0.00 0.00 0.00 74 1011.5
20260906020045 31 353 0.0 3.2 0.00 0.00 0.00 71 1011.2
20260906014544 31 353 0.0 1.6 0.00 0.00 0.00 66 1011.0
20260906013044 31 353 0.0 3.2 0.00 0.00 0.00 64 1011.0
20260906011543 32 353 0.0 3.2 0.00 0.00 0.00 63 1010.9
20260906010044 32 51 0.0 4.8 0.00 0.00 0.00 62 1010.8
20260906004543 32 31 3.2 6.4 0.00 0.00 0.00 62 1010.8
20260906003042 33 350 3.2 8.0 0.00 0.00 0.00 60 1010.9
20260906001542 33 41 3.2 6.4 0.00 0.00 0.00 56 1010.8
20260906000042 34 8 3.2 6.4 0.00 0.00 0.00 54 1010.8
20260905234544 34 340 1.6 4.8 0.00 0.00 0.00 54 1010.7
20260905233047 35 49 1.6 4.8 0.00 0.00 0.00 51 1010.6
20260905231540 35 41 3.2 6.4 0.00 0.00 0.00 50 1010.6
20260905230039 35 45 3.2 6.4 0.00 0.00 0.00 50 1010.6
20260905224608 35 69 3.2 6.4 0.00 0.00 0.00 49 1010.6
20260905223044 35 37 3.2 8.0 0.00 0.00 0.00 48 1010.6
20260905221537 35 45 4.8 8.0 0.00 0.00 0.00 48 1010.6
20260905220037 36 49 6.4 12.9 0.00 0.00 0.00 45 1010.7
20260905214543 36 89 4.8 11.3 0.00 0.00 0.00 44 1010.8
20260905213033 36 35 6.4 11.3 0.00 0.00 0.00 45 1011.1
20260905211541 36 64 3.2 9.7 0.00 0.00 0.00 46 1011.3
20260905210040 36 18 8.0 11.3 0.00 0.00 0.00 46 1011.7
20260905204528 36 53 6.4 12.9 0.00 0.00 0.00 46 1011.8
20260905203028 36 345 3.2 12.9 0.00 0.00 0.00 47 1011.9
20260905201527 35 67 4.8 12.9 0.00 0.00 0.00 48 1012.0
20260905200028 35 26 9.7 12.9 0.00 0.00 0.00 48 1012.2
20260905194525 35 6 4.8 11.3 0.00 0.00 0.00 48 1012.5
20260905193024 35 76 3.2 9.7 0.00 0.00 0.00 47 1012.7
20260905191524 35 37 3.2 9.7 0.00 0.00 0.00 51 1012.8
20260905190024 35 71 4.8 9.7 0.00 0.00 0.00 51 1012.9
20260905184529 36 134 4.8 8.0 0.00 0.00 0.00 50 1012.9
20260905183024 36 157 3.2 9.7 0.00 0.00 0.00 48 1013.1
20260905181521 35 111 3.2 9.7 0.00 0.00 0.00 51 1013.2
20260905180017 35 184 3.2 9.7 0.00 0.00 0.00 56 1013.3